Starlink 32610

operational
NORAD ID: 61971 Int'l Des: 2024-210 Owner: SPXS Country: US Constellation: starlink
LEOCIRCULAR

About Starlink 32610

Description loading...

Live Position

Loading 3D Globe...

Upcoming Passes

Altitude History

Altitude vs Time

uPlot chart will show altitude changes over time

Two-Line Element Set

1 61971U 24210N 25258.23360019 .00025815 00000-0 94302-3 0 9991
2 61971 42.9981 90.9276 0002875 269.0528 90.9995 15.27624070 48081
Epoch: Sep 15, 2025 • Age: 12 hours

Current Status

Altitude 489.5 km
Velocity 7.62 km/s
Sub-Earth Point -30.01°S, 47.51°E
Launch Date Nov 14, 2024
Age 0.8 years
Type internet

Technical Details

Classification Payload
Mass 730.00 kg
Dry Mass 700.00 kg
Total Mass 730.00 kg
Length 0.30 m
Diameter 4.10 m
Span 29.00 m
Shape Box + pan
Manufacturer SPXS
Bus Type Starlink V2M
Phase Status In Orbit
Owner/State SPXS/US

Large Constellations

Loading constellations...